540  
ASUS46 KPDT 240225  
RWRPDT  
PENDLETON REGIONAL WEATHER ROUNDUP  
NATIONAL WEATHER SERVICE PENDLETON OREGON  
700 PM PDT WED SEP 23 2020  
 
NOTE: FAIR INDICATES FEW OR NO CLOUDS BELOW 12,000 FEET WITH NO  
SIGNIFICANT WEATHER AND/OR S TO VISIBILITY
.  
 
# INDICATES UNOFFICIAL STATION AND DATA  
 
WAZ520-240310-  
EAST SLOPES OF WASHINGTON CASCADES  
 
CITY SKY/WX TMP DP RH WIND PRES REMARKS
 
#BULLFROG N/A 54 54 100 CALM N/A  
#EASTON DOT N/A 52 51 96 CALM N/A  
#ELK HTS DOT N/A 53 53 100 CALM N/A  
#GLENWOOD N/A 59 57 93 CALM 29.76F  
#NELSON 3SW N/A 51 49 93 CALM 29.95S  
#NILE N/A 55 53 93 N1 29.10R  
#TROUT LAKE 1NE N/A 58 56 93 CALM 29.78S  
#TROUT LAKE 1E N/A 58 56 93 CALM 29.85S  

 
 
WAZ521-240310-  
SIMCOE HIGHLANDS  
 
CITY SKY/WX TMP DP RH WIND PRES REMARKS
 
#SATUS PASS DOT N/A 61 50 67 N9 N/A  
#CENTERVILLE 1SWN/A 65 54 68 CALM 29.70R  
#LYLE 6NE N/A 62 57 84 SW6 29.76S  
#PITT 4SE N/A 60 54 81 W9 29.77R  

 
 
WAZ026-240310-  
KITTITAS VALLEY  
 
CITY SKY/WX TMP DP RH WIND PRES REMARKS
 
ELLENSBURG AP RAIN 59 53 80 W6 29.77F  
#ELLENSBURG CWU N/A 56 53 90 N7 29.68S  
#ELLENSBURG 3NE N/A 56 52 86 N3 27.86F  
#ELLENSBURG 1E N/A 56 54 93 CALM 29.76R  
#KITTITAS 3S N/A 57 55 93 CALM 29.72R  
#MANASTASH RDG N/A 54 54 100 CALM N/A  
#ROCKY CYN DOT N/A 56 55 96 W5 N/A  
#RYEGRASS DOT N/A 56 54 93 W5 N/A  

 
 
WAZ027-240310-  
YAKIMA VALLEY  
 
CITY SKY/WX TMP DP RH WIND PRES REMARKS
 
SUNNYSIDE AP MOCLDY 65 58 78 NW8 29.76R  
YAKIMA AIRPORT MOCLDY 65 57 75 S16G24 29.73F  
YAKIMA-VAGABOND MOCLDY 64 55 73 S14 29.73  
#MABTON N/A 68 57 68 NW15 29.73R  
#NACHES 2SW N/A 58 55 90 CALM 29.75F  
#OUTLOOK DOT N/A 65 58 78 CALM 29.71R  
#TERRACE HTS N/A 62 58 87 CALM 29.68F  
#TOPPENISH N/A 65 58 78 CALM 29.64R  
#I82 S UMTANUM RN/A 60 57 90 S9 N/A  
#ZILLAH DOT N/A 65 56 73 N3 N/A  

 
 
WAZ028-240310-  
LOWER COLUMBIA BASIN...WASHINGTON  
 
CITY SKY/WX TMP DP RH WIND PRES REMARKS
 
HANFORD LGT RAIN 69 54 59 NW12 29.66R  
PASCO PTCLDY 76 48 37 CALM 29.66F  
PROSSER AWOS N/A 68 57 68 NW17G24 29.77R  
RICHLAND AWOS CLOUDY 74 52 46 NW9 29.68S  
#BASIN CITY 5SW N/A 69 52 55 N2 29.68F  
#BENTON CITY N/A 73 49 43 CALM 29.57S  
#CONNELL 5N N/A 71 45 39 NW2 29.67F  
#CONNELL 5NW N/A 68 51 55 CALM 29.62F  
#ELTOPIA 6NW N/A 70 54 57 CALM 28.68F  
#KAHLOTUS N/A 74 42 32 S7 29.65F  
#KENNEWICK 3S N/A 72 48 43 CALM 29.64F  
#PROSSER DOT N/A 72 53 51 W9 29.74R  
#SAGEMOOR 2W N/A 71 54 55 S1 29.51F  
#TOUCHET 2S N/A 73 49 43 SW1 29.62F  

 
 
WAZ029-240310-  
FOOTHILLS OF THE BLUES...WASHINGTON  
 
CITY SKY/WX TMP DP RH WIND PRES REMARKS
 
WALLA WALLA AP FAIR 75 39 27 E7 29.71F  
#CLYDE 6NW N/A 75 41 29 E3 29.63F  
#DELANEY DOT N/A 68 52 57 CALM 29.73F  
#LOWDEN 2SE N/A 72 55 55 CALM 29.63F  
#PRESCOTT N/A 68 53 59 CALM 29.65F  
#WHITMAN MISSIONN/A 73 57 57 CALM 29.64F  

 
 
WAZ030-240310-  
BLUE MOUNTAINS...WASHINGTON  
 
CITY SKY/WX TMP DP RH WIND PRES REMARKS
 
#DIXIE 5SE N/A 73 36 26 SE6 29.72F  

 
 
ORZ009-041-WAZ024-240310-  
COLUMBIA RIVER GORGE  
 
CITY SKY/WX TMP DP RH WIND PRES REMARKS
 
HOOD RIVER AP RAIN 63 59 87 W9 29.81R  
THE DALLES AP CLOUDY 71 55 57 W18G24 29.73S  
#CELILO DOT N/A 76 55 48 SW12 N/A  
#LYLE N/A 65 60 84 NW5 29.80R  
#MARYHILL N/A 70 54 57 N18G37 29.59R  
#RUFUS DOT N/A 77 56 48 W14 N/A  
 

 
 
ORZ510-240310-  
NORTH CENTRAL OREGON  
 
CITY SKY/WX TMP DP RH WIND PRES REMARKS
 
#ANTELOPE N/A 74 48 40 W12G26 29.54F  
#COW CYN RST AREN/A 72 43 35 SW23G36 N/A  
#DUFUR N/A 74 52 46 S3 29.69R  
#DUFUR 9E N/A 64 54 70 SW6 29.76R  
#GRASS VALLEY 1SN/A 72 49 44 W13 29.67R  
#KENT DOT N/A 75 39 27 SW18G29 N/A  
#SHANIKO 5WSW N/A 71 43 36 CALM N/A  
#TYGH VALLEY 2NEN/A 75 53 46 W16 29.69R  
#WAPANITIA AIRPON/A 73 52 48 W14G26 29.72R  
#WASCO DOT N/A 69 54 59 W5 N/A  
#WASCO 5NE N/A 67 53 61 W13 29.69R  

 
 
ORZ511-240310-  
CENTRAL OREGON  
 
CITY SKY/WX TMP DP RH WIND PRES REMARKS
 
BEND AIRPORT FAIR 72 43 35 SW16 29.91F  
MADRAS AIRPORT FAIR 73 45 37 SW23G31 29.82F  
PRINEVILLE AP N/A 73 41 31 SW17G26 29.90F  
REDMOND AIRPORT FAIR 75 42 31 SW12G24 29.87F  
#ASHWOOD SCHOOL N/A 77 46 33 SW7 29.79F  
#BEND-KIM LN N/A 72 48 43 S7 29.68F  
#CULVER N/A 75 47 37 S14G26 29.22F  
#PRINEVILLE N/A 74 45 35 SW5 29.85F  
#WARM SPRINGS N/A 78 51 39 CALM 29.59S  
 

 
 
 
ORZ509-240310-  
EAST SLOPES OF OREGON CASCADES  
 
CITY SKY/WX TMP DP RH WIND PRES REMARKS
 
SISTERS AWOS N/A 73 46 38 CALM 29.85S  
SUNRIVER AWOS MOCLDY 66 43 43 SW20G31 29.99F  
#BLUE BOX PASS N/A 55 N/A N/A NW1 N/A  
#CAMP SHERMAN N/A 68 46 45 CALM 29.82S  
#LAVA BUTTE DOT N/A 65 39 38 N3 N/A  
#SISTERS ODOT N/A 71 44 38 SE1 N/A  
#TUMALO 3W N/A 70 46 42 S1 29.59F  
#WANOGA BUTTE D N/A 57 41 55 SW17G35 N/A  
 

 
 
ORZ044-240310-  
LOWER COLUMBIA BASIN...OREGON  
 
CITY SKY/WX TMP DP RH WIND PRES REMARKS
 
HERMISTON PTCLDY 82 44 26 SW8 29.67F  
#BOARDMAN SCHOOLN/A 75 51 43 CALM 29.60F  
#IONE SCHOOL N/A 83 45 26 S9 29.67S  
#UMATILLA N/A 80 48 33 CALM 29.57F  

 
 
ORZ507-240310-  
NORTHERN FOOTHILLS OF THE BLUES  
 
CITY SKY/WX TMP DP RH WIND PRES REMARKS
 
PENDLETON AIRPT FAIR 82 35 18 SW13 29.72F  
#ADAMS 3WNW N/A 75 39 27 CALM 29.66F  
#CAYUSE N/A 79 40 25 CALM 29.66F  
#HELIX SCHOOL N/A 77 39 25 S7 29.67F  
#HELIX 3N N/A 74 38 27 SW1 29.77F  
#HOLDMAN 6E N/A 79 39 24 S7 29.47F  
#M-FREEWATER 5SEN/A 70 45 41 NW2 29.72F  
#PDT SUNRIDGE N/A 80 40 24 CALM 29.72F  
#PENDLETON 6SE N/A 74 40 29 S1 29.62F  
#TUTUILLA N/A 72 41 33 CALM 29.76F  
#UMAPINE 2E N/A 67 54 63 CALM 29.65F  
 

 
 
ORZ508-240310-  
SOUTHERN FOOTHILLS OF THE BLUES  
 
CITY SKY/WX TMP DP RH WIND PRES REMARKS
 
#HEPPNER EOC N/A 80 41 25 SW7 29.63S  
#HEPPNER 4NE N/A 75 41 29 W7 29.68F  
#OLEX 4N N/A 74 52 46 W8 29.72R  
#RUGGS 2SW N/A 77 43 30 W18G26 29.74S  
 

 
 
ORZ502-503-240310-  
BLUE MOUNTAINS  
 
CITY SKY/WX TMP DP RH WIND PRES REMARKS
 
MEACHAM FAIR 67 33 28 CALM 29.88F  
#BATTLE MTN DOT N/A 69 34 27 SW2 N/A  
#LADD CYN SMT N/A 72 35 26 SE2 N/A  
#N POWDER DOT N/A 72 35 26 SE15 N/A  
#TOLLGATE N/A 64 35 34 CALM 29.98F  
#TROY SCHOOL N/A 73 49 43 CALM 29.54F  
#WESTON 4E N/A 71 35 27 CALM 29.67F  

 
 
ORZ505-240310-  
JOHN DAY BASIN  
 
CITY SKY/WX TMP DP RH WIND PRES REMARKS
 
JOHN DAY FAIR 74 30 20 SW8 29.91F  
#DAYVILLE SCHOOLN/A 78 34 20 CALM 29.80S  
#MITCHELL 8NW N/A 72 41 33 W8 29.76S  
#MONUMENT HS N/A 82 36 19 SE8 29.75S  

 
 
ORZ506-240310-  
OCHOCO AND JOHN DAY HIGHLANDS  
 
CITY SKY/WX TMP DP RH WIND PRES REMARKS
 
#BUCK CREEK DOT N/A 71 29 21 SW9 N/A  
#HORSE RIDGE DO N/A 70 40 34 S23G37 N/A  
#KEYES SMT DOT N/A 68 40 36 W7 N/A  
#PAULINA ODOT N/A 74 N/A N/A SW18G28 N/A  
#PRAIRIE CITY N/A 75 29 18 S2 29.85F  
#SENECA 9NW N/A 68 31 25 CALM 29.80F  

 
 
ORZ049-240310-  
GRANDE RONDE VALLEY  
 
CITY SKY/WX TMP DP RH WIND PRES REMARKS
 
LA GRANDE FAIR 75 34 22 S14 29.84F  
#COVE SCHOOL N/A 75 37 25 SE3 29.86F  
#COVE 6NW N/A 73 41 31 SE1 29.74F  
#ELGIN 1E N/A 75 37 25 W1 N/A  
#IMBLER SCHOOL N/A 71 37 29 NE1 29.80S  
#ISLAND CITY 4N N/A 62 61 97 CALM 29.79F  
#LADD CYN DOT N/A 75 43 32 S8 N/A  
#UNION 1S N/A 76 38 25 S9G26 29.73F  

 
 
ORZ050-240310-  
WALLOWA COUNTY  
 
CITY SKY/WX TMP DP RH WIND PRES REMARKS
 
JOSEPH AIRPORT FAIR 69 28 21 NE9 29.89F  
#ENTERPRISE HS N/A 70 39 32 E7 29.64F  
#IMNAHA SCHOOL N/A 78 35 21 SE6 29.73F  
#JOSEPH 3N N/A 67 34 29 SE2 29.92F  
#LOSTINE N/A 67 38 34 CALM 29.57F  
#LOSTINE 3SE N/A 72 72 100 CALM 29.95F  
#MT HOWARD 8000 N/A 54 27 35 S18G52 30.05F  
#WALLOWA LAKE N/A 71 33 25 SW7 29.91F  
#WALLOWA SCHOOL N/A 68 43 40 CALM 29.73F  
 

 
 
CLICK HERE TO GO TO PREVIOUS BULLETINS.

The Nexlab OR Page
The Nexlab WA Page Main Text Page